Location: Burgberg
(50.1428°N, 11.0671°E)
Time: 19:27:45
(UTC+00:00)

Cosmos 1437 - Pass Details

Date: 26 January 2020
Orbit: 377 x 382 km, 81.2° (Epoch: 21 February)

Event Time Altitude Azimuth Distance (km) Brightness Sun altitude
Exits shadow 05:08:24 13° 358° (N) 1,238 5.0 -17.5°
Maximum altitude 05:11:00 54° 75° (ENE) 467 3.3 -17.1°
Drops below altitude 10° 05:13:58 10° 155° (SSE) 1,390 5.8 -16.6°
Sets 05:15:58 0° 160° (SSE) 2,237 6.9 -16.3°
